User: anonymous   Login
Location: Peebles
(55.6412°N, 3.1714°W)
Time: 16:24:04
(UTC+01:00)
Language:

NOAA 16 DEB - Orbit

View from above orbital plane
View from above orbital plane
View from above satellite
View from above satellite

Ground track
Ground track

The orbit data is extracted from the following two-line orbital elements,

1 41211U 00055DQ  22183.62554245  .00000841  00000-0  49695-3 0  9997
2 41211  98.7738 243.5944 0026449 282.2931  77.5279 14.10306299337810
Epoch (UTC): 02 July 2022 15:00:46
Eccentricity: 0.0026449
inclination: 98.7738°
perigee height: 839 km
apogee height: 877 km
right ascension of ascending node: 243.5944°
argument of perigee: 282.2931°
revolutions per day: 14.10306299
mean anomaly at epoch: 77.5279°
orbit number at epoch: 33781

The dashed part of the orbit path shows where the satellite is in the earth's shadow,  

DLR